Preview of NWS' New Version of Forecast
This preview is not operational and should not be used for support decisions.

Regional Weather Roundup (RWR)

Issued by National Weather Service (NWS)

                            
000
ASCA42 TJSJ 190310
RWRPR 
PUERTO RICO/U.S. VIRGIN ISLANDS HOURLY WEATHER ROUNDUP
NATIONAL WEATHER SERVICE SAN JUAN PR
1100 PM AST THU APR 18 2019

PRZ001>002-007>008-010-190400-
PUERTO RICO
  
CITY           SKY/WX    TMP DP  RH WIND       PRES   REMARKS
SAN JUAN LMM   PTCLDY    79  68  69 E15       30.06R                  
CEIBA          PTCLDY    81  68  65 MISG      30.07S                  
$$

VIZ001>002-190400-
U.S. VIRGIN ISLANDS
  
CITY           SKY/WX    TMP DP  RH WIND       PRES   REMARKS
CHARLOTTE AMA  CLEAR     79  66  65 E9        30.05S                  
CHRISTIANSTED  PTCLDY    77  66  69 E17       30.05S                  
$$

HOURLY WEATHER ROUNDUP FOR THE NEWS MEDIA
  
CITY           SKY/WX    TMP DP  RH WIND       PRES   REMARKS
ORLANDO        LGT RAIN  76  73  91 SE9       29.94R                  
NEW YORK       MOCLDY    54  53  97 S20       29.91R                  
NEWARK         MOCLDY    64  53  67 S5        29.87S                  
CHICAGO        CLOUDY    44  38  79 N13       29.77F                  
HARTFORD       CLOUDY    57  57 100 S15G25    29.95F                  
BOSTON         CLOUDY    61  57  87 S20       29.89F                  
DALLAS         LGT RAIN  59  48  67 N15G26    29.96R                  
PHILADELPHIA   MOCLDY    68  57  68 S13       29.87S                  
LOS ANGELES    PTCLDY    61  56  83 W8        30.01R                  
WASHINGTON DC  CLOUDY    74  51  44 S17G25    29.81F